7 * 24
多渠道服务支持
STARLINK-32457 是 SpaceX Starlink 卫星互联网项目中的一颗低轨道卫星,属于第 6 批次部署的星链卫星之一。该卫星于 2023 年发射,旨在为全球提供高速、低延迟的宽带互联网服务。它运行在约 550 公里的轨道高度,采用先进的通信技术,支持全球范围内的网络连接,尤其服务于偏远和网络基础设施薄弱的地区。Starlink 项目由数千颗卫星组成,致力于构建一个覆盖全球的卫星互联网系统。
  
                美国
                (US)
                | 数据来源 | 国际轨道数据 | 
| 星历时间: | 2025-11-02T19:44:25+0800 1天前 查看轨道信息 | 
| 半长轴: | 6853.405km | 
| 偏心率: | 0.0001218 | 
| 轨道倾角: | 53.160° | 
| 近地点辐角 | 73.960° | 
| 升交点赤经 | 332.028° | 
| 平近点角 | 286.154° | 
| 近地点: | 474.435km | 
| 远地点: | 476.105km | 
| 周期: | 94.106分钟 | 
| 每日圈数: | 15.301825 |